Terminal Aerodrome Forecast
Issued by NWS

Home | Current Version | Previous Version | Text Only | Print | Product List | Glossary On
Versions: 1 2 3 4 5 6 7 8 9 10 11 12 13 14 15
000
FTUS42 TJSJ 190500 RRA
TAFJSJ
TAF
TJSJ 190546Z 1906/2006 12003KT P6SM FEW030 SCT060
     FM191450 05011KT P6SM FEW025 SCT070
     FM192200 08006KT P6SM FEW030=

USA.gov is the U.S. government's official web portal to all federal, state and local government web resources and services.